Simultaneous Nadir Overpasses (SNOs) Predictions

Prediction of SNOs between AQUA and GOES-15 Satellite Orbit:

Table of predicted SNOs for the next 14.0 days since TLE Epoch: 3/21/2014
Index Date Time (AQUA) AQUA Lat,Lon GOES-15 Lat,Lon Distance(km) Time Diff (sec)
1 03/22/2014 22:35:51 0.00,-134.90 0.02,-134.95 6.09 80
2 03/24/2014 22:23:42 0.68,-131.96 0.02,-135.01 347.69 80
3 03/25/2014 10:44:58 0.41,-137.12 -0.01,-135.04 235.62 80
4 03/27/2014 10:32:47 -0.20,-134.16 -0.01,-135.10 106.42 80
5 03/27/2014 22:54:11 -0.92,-139.35 0.01,-135.10 483.89 80
6 03/29/2014 10:20:36 -0.85,-131.21 -0.01,-135.15 448.42 80
7 03/29/2014 22:42:00 -0.26,-136.40 0.01,-135.15 141.82 80
8 03/31/2014 22:29:48 0.39,-133.44 0.01,-135.20 200.18 80
9 04/01/2014 10:51:03 0.72,-138.59 -0.01,-135.23 382.85 80
10 04/03/2014 10:38:50 0.08,-135.63 -0.01,-135.27 41.15 80




NCC Satellite Simultaneous Nadir Overpasses (SNOs) Prediction Service
